STARLINK-1797, 46698

Orbit data source: Space-Track

STARLINK-1797, 46698 is a payload satellite owned by SpaceX/Seattle (US) in LEO that was launched on Sun, 18 Oct 2020 UTC via an FALCON 9 launch vehicle from the Air Force Eastern Test Range (AFETR). Payload-class satellites include a variety of spacecraft equipped with specific instruments for various scientific and technological missions. These include communications satellites like Starlink; space stations such as the ISS; scientific satellites like the Hubble; Earth observation satellites from companies like Planet Labs, Umbra, and HawkEye 360; GPS; miniature CubeSats for education and research; and military/defense satellites.

Loading next visibility...
Identifier
46698, 2020-073AE
Orbit
LEO
Country
Flag of USUS
Related business
Manufacturer
SpaceX/Seattle
Mission
Operational Commercial Communications
Bus & Motor
STARLINK, Unknown motor
Mass
260 kg wet, ~248 kg dry
Launch date (UTC)
2020-10-18 (5 years ago)
Launch vehicle
FALCON 9
Launch site
Air Force Eastern Test Range (AFETR)
Object type
Payload
Rocket body
Debris
Shape & HBR
Box + 1 Pan, 10.1 m
Radar Cross Section
13.562 m², Large (>1 m²)

Expand to show TLE details & history
Last TLE update: 7 hours ago

TLE from 7 hours ago
0 STARLINK-1797
1 46698U 20073AE  25295.83334491  .01029892  00000-0  50996-1 0  9994
2 46698  53.0535 140.9395 0001495  88.7857 296.0704 15.14709496  5727
Epoch: 2025-10-22T20:00Z
TLE epoch observation values (Epoch: 2025-10-22T20:00:01.000Z)
Latitude
19.65794°
Longitude
-175.06897°
Altitude
521.834 km
Speed
7.606 km/s
True Right ascension
10h 25m 44s
True Declination
19° 32' 44"
Sunlit
Object was in daylight at epoch
Visualization orbit readout
Latitude
Unknown
Longitude
Unknown
Altitude
Unknown
Speed
Unknown
Apparent Right ascension
Unknown
Apparent Declination
Unknown
Sunlit
N/A
Visualization observer readout
Local Sidereal Time
21:45:21
Azimuth
Unknown
Elevation
Unknown
Doppler factor
Unknown
Orbital elements
Apogee altitude
523.164 km
Perigee altitude
521.101 km
Semi-major axis
6,900.269 km
Eccentricity
0.00015
Inclination
53.0535°
RAAN
140.9395°
Arg. of periapsis
88.7857°
True anomaly
296.05501°
Mean anomaly
296.0704°
Eccentric anomaly
296.06271°
Mean motion
3.78655 °/min
Orbital period
95.07 mins
BSTAR
0.050996
Loading maneuver chart data...
Computing Atmospheric mass density...

Documentation

Showing up to 5 results
|